Location: Arclight Observatory
(36.5667°N, 87.3333°W)
Time: 00:07:39
(UTC-06:00)

Daily predictions for brighter satellites

Satellite Brightness Start Highest point End
(mag) Time Altitude Azimuth Time Altitude Azimuth Time Altitude Azimuth
Cosmos 2369 Rocket 4.2 03:12:46 24° NE 03:12:46 24° NE 03:15:17 10° NE
ADEOS II 4.2 03:17:31 10° NNE 03:19:22 21° NE 03:19:22 21° NE
ATLAS CENTAUR R/B 3.8 03:35:03 49° NNE 03:36:13 55° NE 03:50:31 10° SE
USA 234 3.4 03:45:35 10° NE 03:51:19 64° N 03:51:19 64° N
Cosmos 2266 Rocket 4.2 03:47:09 10° N 03:53:15 63° E 03:59:14 10° SSE
ATLAS 5 CENTAUR R/B 2.8 03:58:27 44° ENE 03:58:27 44° ENE 04:02:06 10° NE
CZ-4B R/B 4.3 03:53:31 10° N 03:56:42 36° N 03:56:42 36° N
Cosmos 1943 Rocket 2.6 04:03:56 48° SSE 04:04:59 56° ESE 04:10:23 10° NNE
Cosmos 972 Rocket 4.4 04:09:26 55° NNE 04:09:26 55° NNE 04:13:35 10° NNE
Lacrosse 5 2.1 04:12:00 63° SE 04:12:00 63° SE 04:16:58 10° NE
CZ-4C R/B 3.9 04:11:23 10° S 04:15:44 28° ESE 04:20:28 10° NE
Tiangong 1 4.1 04:19:06 15° E 04:19:06 15° E 04:19:52 10° E
Okean-O 2.6 04:20:31 10° NNE 04:24:57 78° E 04:25:06 76° SE
Cosmos 1908 Rocket 4.1 04:26:07 10° N 04:30:33 58° E 04:34:57 10° SSE
Cosmos 1190 Rocket 4.3 04:25:58 10° NNW 04:31:12 68° ENE 04:36:27 10° SSE
OAO 1 Rocket 4.4 04:31:38 64° SW 04:32:08 68° S 04:37:28 10° ESE
Meteor 1-31 Rocket 3.8 04:28:59 10° N 04:31:27 37° N 04:31:27 37° N
CZ-4B R/B 3.9 04:32:00 10° N 04:35:27 68° N 04:35:27 68° N
Feng Yun 1-1 Rocket 4.3 04:31:48 10° NNE 04:37:42 85° WNW 04:43:37 10° SSW
Cosmos 1624 Rocket 4.3 04:42:42 46° WNW 04:42:42 46° WNW 04:47:42 10° N
Cosmos 2056 Rocket 3.6 04:43:43 48° WNW 04:43:43 48° WNW 04:48:37 10° N
Okean 2 Rocket 4.4 04:48:26 10° N 04:52:36 41° E 04:56:45 10° SSE
Cosmos 2369 Rocket 3.2 04:54:36 26° NW 04:54:36 26° NW 04:58:53 10° N
NOAA 6 3.9 04:50:25 10° NNE 04:55:36 88° WNW 05:00:45 10° SSW
S3M 4.4 04:50:25 10° S 04:56:43 67° E 05:02:58 10° NNE
ADEOS II 3.6 04:58:00 10° NNW 05:00:20 19° NW 05:00:20 19° NW
Ariane Rocket 4.1 05:00:06 10° NNE 05:05:00 46° E 05:09:51 10° S
Thor Agena Rocket 3.6 05:00:22 10° S 05:05:30 55° WSW 05:10:36 10° NNW
Cosmos 1553 Rocket 4.0 04:59:43 10° S 05:05:50 83° E 05:12:07 10° N
Cosmos 1703 Rocket 3.6 05:03:11 10° SSW 05:07:25 54° W 05:11:41 10° N
Cosmos 1833 4.1 05:07:54 10° NNW 05:13:30 74° WSW 05:19:04 10° SSE
Cosmos 1656 Rocket 3.6 05:09:58 10° SSW 05:15:39 79° WNW 05:21:22 10° NNE
FAST 4.5 05:15:34 10° N 05:18:11 87° WNW 05:21:30 10° S
Cosmos 1452 Rocket 3.7 05:20:03 10° SW 05:25:09 50° WNW 05:30:18 10° N
Cosmos 2221 Rocket 3.9 05:22:06 10° SSW 05:26:26 43° W 05:30:47 10° N
Cosmos 1782 2.8 05:25:55 10° S 05:29:52 83° E 05:33:50 10° N
Meteor 1-14 Rocket 4.3 05:24:39 10° NNW 05:30:23 59° W 05:35:56 10° S
COSMO-SKYMED 1 2.7 05:27:07 10° S 05:31:20 51° W 05:35:35 10° NNW
Radarsat Rocket 4.3 05:24:43 10° N 05:31:55 60° WNW 05:38:15 10° SSW
Meteor 1-20 Rocket 4.2 05:30:54 10° N 05:36:39 87° W 05:42:15 10° S
Meteor 2-11 Rocket 4.5 05:33:25 10° S 05:39:30 89° W 05:45:40 10° N
USA 81 4.0 05:35:42 10° S 05:40:57 74° W 05:46:15 10° N
ATLAS 5 CENTAUR R/B 3.4 05:40:02 13° WNW 05:42:20 18° NW 05:45:47 10° N
Meteor 1-28 Rocket 3.4 05:39:28 10° S 05:43:02 47° W 05:46:39 10° NNW
Cosmos 1023 Rocket 4.5 05:40:05 10° NNW 05:45:18 69° WSW 05:50:31 10° S
Cosmos 407 Rocket 4.5 05:43:37 10° NW 05:47:59 26° W 05:52:17 10° SSW
Cosmos 1943 Rocket 3.5 05:45:32 11° W 05:49:05 19° NW 05:52:56 10° N
Tiangong 1 1.5 05:50:38 12° W 05:53:10 42° NNW 05:56:02 10° NE
CZ-4 R/B 2.0 05:50:04 10° NNE 05:54:13 64° E 05:58:17 10° S
Lacrosse 5 3.2 05:51:15 10° W 05:55:17 23° NW 05:59:21 10° NNE
Cosmos 1745 Rocket 4.1 05:51:38 10° NNW 05:57:33 51° W 06:03:26 10° SSW
Meteor 2-6 Rocket 4.1 05:55:48 10° SSW 06:01:09 67° W 06:06:31 10° N
Cosmos 1606 3.0 05:59:46 10° SSW 06:03:28 46° W 06:07:13 10° N
ATLAS 3B R/B 3.1 05:56:18 10° SSW 06:03:55 87° ESE 06:11:19 10° NNE
CZ-4C R/B 2.8 05:59:09 10° WSW 06:03:58 36° NW 06:09:24 10° NNE
Cosmos 1633 3.1 06:00:45 10° N 06:04:22 66° E 06:07:57 10° SSE
CSL-04 DEB 4.3 06:01:03 10° N 06:05:03 78° WNW 06:08:57 10° SSW
CSL-04 Rocket 3.8 06:00:15 10° N 06:05:28 54° WNW 06:10:44 10° SSW
